[[{"header":{"parameterUnit":"m.s-1","parameterCategory":1,"la1":30.2992,"la2":30.254,"lo1":-89.0895,"lo2":-89.0443,"dy":0.0025,"dx":0.0025,"nx":19,"ny":19,"refTime":"2026-04-22T03:00:00:Z","depth":0,"parameterNumber":2,"parameterNumberName":"U-component_of_WINDS"},"data":[0,0,0,-3.8954,-3.8956,-3.8996,-3.8996,-3.9088,-3.9089,0,0,0,0,0,0,0,0,0,0,0,-3.8967,-3.8968,-3.8954,-3.8956,-3.8996,-3.8996,-3.9088,-3.9089,0,0,0,0,0,0,0,0,0,0,0,-3.8966,-3.8968,-3.897,-3.8956,-3.8996,-3.8996,-3.9087,-3.9042,0,0,0,0,0,0,0,0,0,0,-3.8996,-3.9032,-3.8967,-3.897,-3.8957,-3.8996,-3.8996,-3.904,-3.9045,-3.9087,0,-3.913,0,-3.9111,-3.9098,-3.9098,0,0,0,-3.8938,-3.9027,-3.9016,-3.897,-3.8957,-3.8996,-3.8973,-3.9042,-3.9049,-3.9094,-3.9131,-3.9133,-3.9113,-3.9098,-3.9099,-3.9399,-3.9401,0,0,-3.8935,-3.8987,-3.9012,-3.9022,-3.9018,-3.8972,-3.8974,-3.9046,-3.9089,-3.9131,-3.9135,-3.9114,-3.9099,-3.91,-3.9397,-3.94,0,0,0,-3.8941,-3.8987,-3.8972,-3.9019,-3.9023,-3.8973,-3.8976,-3.9086,-3.9077,-3.9135,-3.9115,-3.91,-3.9102,-3.9394,-3.9398,-3.9559,0,0,0,-3.8939,-3.899,-3.8972,-3.9005,-3.9023,-3.9055,-3.9016,-3.9072,-3.9078,-3.9115,-3.91,-3.9103,-3.9392,-3.9396,-3.9549,-3.9626,0,0,0,-3.8956,-3.8991,-3.9006,-3.9007,-3.9027,-3.9053,-3.9047,-3.9072,-3.9067,-3.9098,-3.9103,-3.939,-3.9395,-3.954,-3.9611,-3.9719,0,0,0,-3.8988,-3.9149,-3.9009,-3.918,-3.9027,-3.9153,-3.9046,-3.9137,-3.9183,-3.9101,-3.9392,-3.9397,-3.9537,-3.9602,-3.971,-3.9818,-3.9868,0,0,-3.9219,-3.9179,-3.9275,-3.9151,-3.9315,-3.9142,-3.933,-3.9323,-3.9278,-3.9361,-3.9368,-3.9552,-3.961,-3.9717,-4.0135,-4.0175,0,0,0,-3.9366,-3.9436,-3.9468,-3.9514,-3.9513,-3.9518,-3.9477,-3.9474,-3.9542,-3.9332,-3.9619,-3.9652,-3.9713,-3.9762,-3.9796,-3.9844,-3.9423,-3.9422,-3.9422,-3.9766,-3.9701,-3.9856,-3.9796,-3.9843,-3.9799,-3.983,-3.9819,-3.974,-3.9809,-3.9833,-4.0094,-4.0154,-4.0179,-4.0231,-3.9886,-3.9887,-3.9887,-3.9888,-4.0097,-4.0185,-4.0077,-4.0188,-4.0118,-4.0211,-4.0176,-4.0117,-4.0193,-4.0071,-4.0121,-3.9993,-4.0226,-4.0267,-3.9899,-3.9897,-3.9896,-3.9895,-3.9894,-4.035,-4.0381,-4.0376,-4.0436,-4.049,-4.0423,-4.0502,-4.0436,-4.0374,-4.0424,-4.0441,-4.0438,-4.0426,-4.0437,-4.0438,-4.0439,-4.044,-4.044,-4.0441,-4.0614,-4.0603,-4.0677,-4.069,-4.0711,-4.073,-4.0689,-4.0707,-4.0711,-4.0657,-4.0657,-4.0571,-4.0261,-4.0184,-4.0455,-4.0452,-4.045,-4.0449,-4.0448,-4.0971,-4.088,-4.0994,-4.1015,-4.1025,-4.1082,-4.0998,-4.1042,-4.1048,-4.1089,-4.0993,-4.0775,-4.0728,-4.07,-4.0636,-4.1007,-4.1007,-4.1007,-4.1007,-4.1183,-4.1154,-4.1255,-4.1293,-4.1323,-4.1258,-4.1389,-4.136,-4.1314,-4.1314,-4.1251,-4.1161,-4.1136,-4.1103,-4.1067,-4.1005,-4.1462,-4.1463,-4.1463,-4.1398,-4.1368,-4.1492,-4.1446,-4.1449,-4.1453,-4.1574,-4.1622,-4.1552,-4.148,-4.1312,-4.1293,-4.1146,-4.1102,-4.1024,-4.0969,-4.0854,0,0]},{"header":{"parameterUnit":"m.s-1","parameterCategory":1,"la1":30.2992,"la2":30.254,"lo1":-89.0895,"lo2":-89.0443,"dy":0.0025,"dx":0.0025,"nx":19,"ny":19,"refTime":"2026-04-22T03:00:00:Z","depth":0,"parameterNumber":3,"parameterNumberName":"V-component_of_WINDS"},"data":[0,0,0,1.1126,1.1125,1.1043,1.1043,1.0985,1.0985,0,0,0,0,0,0,0,0,0,0,0,1.1177,1.1178,1.1126,1.1124,1.1043,1.1043,1.0985,1.0985,0,0,0,0,0,0,0,0,0,0,0,1.1177,1.1177,1.1178,1.1124,1.1043,1.1043,1.0985,1.103,0,0,0,0,0,0,0,0,0,0,1.1101,1.1175,1.1177,1.1178,1.1124,1.1044,1.1043,1.1031,1.1027,1.1041,0,1.1061,0,1.1022,1.0984,1.0984,0,0,0,1.1104,1.1179,1.1132,1.1178,1.1123,1.1044,1.1074,1.1028,1.1024,1.1036,1.1059,1.1056,1.1021,1.0984,1.0983,1.1135,1.1137,0,0,1.1108,1.1177,1.1136,1.113,1.1146,1.1077,1.1072,1.1025,1.1055,1.1059,1.1054,1.102,1.0983,1.0983,1.1134,1.1136,0,0,0,1.1135,1.1181,1.1134,1.1134,1.1116,1.1075,1.1069,1.1057,1.1036,1.1053,1.102,1.0983,1.0983,1.1132,1.1134,1.1285,0,0,0,1.1137,1.1196,1.1138,1.1179,1.1118,1.1085,1.1104,1.1039,1.1032,1.102,1.0983,1.0983,1.113,1.1133,1.1277,1.1345,0,0,0,1.1173,1.12,1.1198,1.1183,1.115,1.1084,1.106,1.1036,1.1013,1.0984,1.0983,1.1128,1.1132,1.127,1.1333,1.1407,0,0,0,1.1231,1.1332,1.1202,1.1301,1.1152,1.1179,1.106,1.1076,1.1069,1.0983,1.113,1.1134,1.1267,1.1325,1.14,1.1483,1.1524,0,0,1.1396,1.1354,1.1407,1.1288,1.1357,1.1185,1.1275,1.1202,1.1136,1.114,1.1142,1.128,1.1332,1.1405,1.1726,1.1759,0,0,0,1.1483,1.1523,1.1525,1.1523,1.1471,1.1433,1.134,1.1313,1.1313,1.1152,1.1323,1.1352,1.1393,1.1429,1.1457,1.1489,1.1154,1.1153,1.1153,1.1816,1.1727,1.181,1.1713,1.1712,1.1616,1.1607,1.1555,1.1464,1.1507,1.1508,1.1713,1.1758,1.1779,1.1813,1.1543,1.1544,1.1544,1.1544,1.2051,1.2093,1.1973,1.201,1.1917,1.1947,1.186,1.1795,1.181,1.1704,1.1735,1.1629,1.1818,1.1843,1.1555,1.1553,1.1552,1.1551,1.155,1.226,1.2265,1.2232,1.2221,1.2222,1.2119,1.2141,1.2054,1.1972,1.2002,1.1995,1.1992,1.198,1.2005,1.2006,1.2006,1.2007,1.2008,1.2008,1.249,1.2448,1.2477,1.2433,1.2421,1.2394,1.2301,1.2287,1.225,1.2185,1.2184,1.2092,1.1852,1.1795,1.2019,1.2017,1.2015,1.2014,1.2014,1.2763,1.2688,1.2733,1.2722,1.2664,1.2673,1.2562,1.2542,1.2518,1.2532,1.2432,1.2269,1.2219,1.2196,1.2149,1.245,1.245,1.245,1.245,1.2941,1.2908,1.2935,1.2923,1.2901,1.2807,1.2862,1.2792,1.2708,1.2688,1.2631,1.256,1.254,1.2502,1.2472,1.2427,1.2792,1.2792,1.2792,1.3105,1.3066,1.313,1.3047,1.2996,1.2955,1.3005,1.2997,1.2885,1.2805,1.2671,1.2656,1.254,1.2506,1.2424,1.238,1.2293,0,0]}]]